Time,TemperatureF,DewpointF,PressureIn,WindDirection,WindDirectionDegrees,WindSpeedMPH,WindSpeedGustMPH,Humidity,HourlyPrecipIn,Conditions,Clouds,dailyrainin,SoftwareType,DateUTC
2013-02-27 00:00:00,39.4,36.2,29.94,SW,225,0.0,0.0,88,0.00,,,0.00,WUHU216HW,2013-02-27 08:00:00,
2013-02-27 00:05:00,39.4,36.2,29.94,SW,225,0.0,0.0,88,0.00,,,0.00,WUHU216HW,2013-02-27 08:05:00,
2013-02-27 00:10:00,39.4,36.2,29.94,SW,225,0.0,0.0,88,0.00,,,0.00,WUHU216HW,2013-02-27 08:10:00,
2013-02-27 00:15:00,39.4,35.8,29.94,SW,225,0.0,0.0,87,0.00,,,0.00,WUHU216HW,2013-02-27 08:15:00,
2013-02-27 00:20:00,39.4,36.2,29.94,SW,225,0.0,0.0,88,0.00,,,0.00,WUHU216HW,2013-02-27 08:20:00,
2013-02-27 00:25:00,39.4,36.2,29.94,SW,225,0.0,0.0,88,0.00,,,0.00,WUHU216HW,2013-02-27 08:25:00,
2013-02-27 00:30:00,39.6,36.4,29.94,SW,225,0.0,0.0,88,0.00,,,0.00,WUHU216HW,2013-02-27 08:30:00,
2013-02-27 00:35:00,39.6,36.4,29.94,SW,225,0.0,0.0,88,0.00,,,0.00,WUHU216HW,2013-02-27 08:35:00,
2013-02-27 00:40:00,39.6,36.4,29.94,SW,225,0.0,0.0,88,0.00,,,0.00,WUHU216HW,2013-02-27 08:40:00,
2013-02-27 00:45:00,39.8,36.5,29.94,SW,225,0.0,0.0,88,0.00,,,0.00,WUHU216HW,2013-02-27 08:45:00,
2013-02-27 00:50:00,39.8,36.5,29.94,SW,225,0.0,0.0,88,0.00,,,0.00,WUHU216HW,2013-02-27 08:50:00,
2013-02-27 00:55:00,40.0,36.6,29.94,SW,225,0.0,0.0,88,0.00,,,0.00,WUHU216HW,2013-02-27 08:55:00,
2013-02-27 01:00:00,40.0,36.6,29.95,SW,225,0.0,0.0,88,0.00,,,0.00,WUHU216HW,2013-02-27 09:00:00,
2013-02-27 01:05:00,40.0,36.6,29.95,SW,225,0.0,0.0,88,0.00,,,0.00,WUHU216HW,2013-02-27 09:05:00,
2013-02-27 01:10:00,40.1,36.8,29.95,SW,225,0.0,0.0,88,0.00,,,0.00,WUHU216HW,2013-02-27 09:10:00,
2013-02-27 01:15:00,40.1,36.8,29.95,SW,225,0.0,0.0,88,0.00,,,0.00,WUHU216HW,2013-02-27 09:15:00,
2013-02-27 01:20:00,40.3,37.0,29.95,SW,225,0.0,0.0,88,0.00,,,0.00,WUHU216HW,2013-02-27 09:20:00,
2013-02-27 01:25:00,40.3,37.0,29.95,SW,225,0.0,0.0,88,0.00,,,0.00,WUHU216HW,2013-02-27 09:25:00,
2013-02-27 01:30:00,40.3,37.0,29.95,SW,225,0.0,0.0,88,0.00,,,0.00,WUHU216HW,2013-02-27 09:30:00,
2013-02-27 01:35:00,40.3,37.0,29.95,SW,225,0.0,0.0,88,0.00,,,0.00,WUHU216HW,2013-02-27 09:35:00,
2013-02-27 01:40:00,40.5,37.5,29.95,SW,225,0.0,0.0,89,0.00,,,0.00,WUHU216HW,2013-02-27 09:40:00,
2013-02-27 01:45:00,40.5,37.2,29.95,SW,225,0.0,0.0,88,0.00,,,0.00,WUHU216HW,2013-02-27 09:45:00,
2013-02-27 01:50:00,40.7,37.4,29.95,SW,225,0.0,0.0,88,0.00,,,0.00,WUHU216HW,2013-02-27 09:50:00,
2013-02-27 01:55:00,40.7,37.4,29.95,SW,225,0.0,0.0,88,0.00,,,0.00,WUHU216HW,2013-02-27 09:55:00,
2013-02-27 02:00:00,40.7,37.4,29.95,SW,225,0.0,0.0,88,0.00,,,0.00,WUHU216HW,2013-02-27 10:00:00,
2013-02-27 02:05:00,40.7,37.7,29.95,SW,225,0.0,0.0,89,0.00,,,0.00,WUHU216HW,2013-02-27 10:05:00,
2013-02-27 02:10:00,40.7,37.7,29.95,SW,225,0.0,0.0,89,0.00,,,0.00,WUHU216HW,2013-02-27 10:10:00,
2013-02-27 02:15:00,40.7,37.7,29.95,SW,225,0.0,0.0,89,0.00,,,0.00,WUHU216HW,2013-02-27 10:15:00,
2013-02-27 02:20:00,40.9,37.9,29.95,SW,225,0.0,0.0,89,0.00,,,0.00,WUHU216HW,2013-02-27 10:20:00,
2013-02-27 02:25:00,40.9,37.9,29.95,SW,225,0.0,0.0,89,0.00,,,0.00,WUHU216HW,2013-02-27 10:25:00,
2013-02-27 02:30:00,40.9,37.9,29.95,SW,225,0.0,0.0,89,0.00,,,0.00,WUHU216HW,2013-02-27 10:30:00,
2013-02-27 02:35:00,41.0,38.1,29.95,SW,225,0.0,0.0,89,0.00,,,0.00,WUHU216HW,2013-02-27 10:35:00,
2013-02-27 02:40:00,41.0,37.7,29.95,SW,225,0.0,0.0,88,0.00,,,0.00,WUHU216HW,2013-02-27 10:40:00,
2013-02-27 02:45:00,41.0,37.7,29.94,SW,225,0.0,0.0,88,0.00,,,0.00,WUHU216HW,2013-02-27 10:45:00,
2013-02-27 02:50:00,41.0,37.7,29.94,SW,225,0.0,0.0,88,0.00,,,0.00,WUHU216HW,2013-02-27 10:50:00,
2013-02-27 02:55:00,41.0,38.1,29.94,SW,225,0.0,0.0,89,0.00,,,0.00,WUHU216HW,2013-02-27 10:55:00,
2013-02-27 03:00:00,40.9,37.9,29.94,SW,225,0.0,0.0,89,0.00,,,0.00,WUHU216HW,2013-02-27 11:00:00,
2013-02-27 03:05:00,40.7,37.7,29.94,SW,225,0.0,0.0,89,0.00,,,0.00,WUHU216HW,2013-02-27 11:05:00,
2013-02-27 03:10:00,40.7,37.7,29.94,SW,225,0.0,0.0,89,0.00,,,0.00,WUHU216HW,2013-02-27 11:10:00,
2013-02-27 03:15:00,40.7,37.7,29.94,SW,225,0.0,0.0,89,0.00,,,0.00,WUHU216HW,2013-02-27 11:15:00,
2013-02-27 03:20:00,40.5,37.5,29.94,SW,225,0.0,0.0,89,0.00,,,0.00,WUHU216HW,2013-02-27 11:20:00,
2013-02-27 03:25:00,40.5,37.5,29.94,SW,225,0.0,0.0,89,0.00,,,0.00,WUHU216HW,2013-02-27 11:25:00,
2013-02-27 03:30:00,40.5,37.5,29.94,SW,225,0.0,0.0,89,0.00,,,0.00,WUHU216HW,2013-02-27 11:30:00,
2013-02-27 03:35:00,40.5,37.5,29.94,SW,225,0.0,0.0,89,0.00,,,0.00,WUHU216HW,2013-02-27 11:35:00,
2013-02-27 03:40:00,40.5,37.5,29.94,SW,225,0.0,0.0,89,0.00,,,0.00,WUHU216HW,2013-02-27 11:40:00,
2013-02-27 03:45:00,40.7,37.7,29.94,SW,225,0.0,0.0,89,0.00,,,0.00,WUHU216HW,2013-02-27 11:45:00,
2013-02-27 03:50:00,40.7,37.7,29.94,SW,225,0.0,0.0,89,0.00,,,0.00,WUHU216HW,2013-02-27 11:50:00,
2013-02-27 03:55:00,40.7,37.7,29.94,SW,225,0.0,0.0,89,0.00,,,0.00,WUHU216HW,2013-02-27 11:55:00,
2013-02-27 04:00:00,40.7,37.7,29.94,SW,225,0.0,0.0,89,0.00,,,0.00,WUHU216HW,2013-02-27 12:00:00,
2013-02-27 04:05:00,40.9,37.9,29.94,SW,225,0.0,0.0,89,0.00,,,0.00,WUHU216HW,2013-02-27 12:05:00,
2013-02-27 04:10:00,40.9,38.2,29.94,SW,225,0.0,0.0,90,0.00,,,0.00,WUHU216HW,2013-02-27 12:10:00,
2013-02-27 04:15:00,40.9,38.2,29.94,SW,225,0.0,0.2,90,0.00,,,0.00,WUHU216HW,2013-02-27 12:15:00,
2013-02-27 04:20:00,40.9,38.2,29.93,SW,225,0.0,0.2,90,0.00,,,0.00,WUHU216HW,2013-02-27 12:20:00,
2013-02-27 04:25:00,40.9,37.9,29.93,SW,225,0.0,0.0,89,0.00,,,0.00,WUHU216HW,2013-02-27 12:25:00,
2013-02-27 04:30:00,40.7,37.7,29.93,SW,225,0.0,0.0,89,0.00,,,0.00,WUHU216HW,2013-02-27 12:30:00,
2013-02-27 04:35:00,40.7,37.7,29.93,SW,225,0.0,0.0,89,0.00,,,0.00,WUHU216HW,2013-02-27 12:35:00,
2013-02-27 04:40:00,40.7,37.7,29.93,SW,225,0.0,0.0,89,0.00,,,0.00,WUHU216HW,2013-02-27 12:40:00,
2013-02-27 04:45:00,40.7,38.0,29.94,SW,225,0.0,0.0,90,0.00,,,0.00,WUHU216HW,2013-02-27 12:45:00,
2013-02-27 04:50:00,40.7,37.7,29.93,SW,225,0.0,0.0,89,0.00,,,0.00,WUHU216HW,2013-02-27 12:50:00,
2013-02-27 04:55:00,40.7,38.0,29.93,SW,225,0.0,0.0,90,0.00,,,0.00,WUHU216HW,2013-02-27 12:55:00,
2013-02-27 05:00:00,40.7,38.0,29.93,SW,225,0.0,0.0,90,0.00,,,0.00,WUHU216HW,2013-02-27 13:00:00,
2013-02-27 05:05:00,40.7,38.0,29.93,SW,225,0.0,0.0,90,0.00,,,0.00,WUHU216HW,2013-02-27 13:05:00,
2013-02-27 05:10:00,40.7,37.7,29.93,SW,225,0.0,0.0,89,0.00,,,0.00,WUHU216HW,2013-02-27 13:10:00,
2013-02-27 05:15:00,40.9,38.2,29.93,SW,225,0.0,0.0,90,0.00,,,0.00,WUHU216HW,2013-02-27 13:15:00,
2013-02-27 05:20:00,40.9,38.2,29.93,SW,225,0.0,0.0,90,0.00,,,0.00,WUHU216HW,2013-02-27 13:20:00,
2013-02-27 05:25:00,40.9,38.2,29.93,SW,225,0.0,0.0,90,0.00,,,0.00,WUHU216HW,2013-02-27 13:25:00,
2013-02-27 05:30:00,41.0,38.3,29.93,SW,225,0.0,0.0,90,0.00,,,0.00,WUHU216HW,2013-02-27 13:30:00,
2013-02-27 05:35:00,41.0,38.3,29.94,SW,225,0.0,0.0,90,0.00,,,0.00,WUHU216HW,2013-02-27 13:35:00,
2013-02-27 05:40:00,41.0,38.3,29.94,SW,225,0.0,0.0,90,0.00,,,0.00,WUHU216HW,2013-02-27 13:40:00,
2013-02-27 05:45:00,41.0,38.3,29.94,SW,225,0.0,0.0,90,0.00,,,0.00,WUHU216HW,2013-02-27 13:45:00,
2013-02-27 05:50:00,41.0,38.3,29.94,SW,225,0.0,0.0,90,0.00,,,0.00,WUHU216HW,2013-02-27 13:50:00,
2013-02-27 05:55:00,41.0,38.3,29.94,SW,225,0.0,0.0,90,0.00,,,0.00,WUHU216HW,2013-02-27 13:55:00,
2013-02-27 06:00:00,41.2,38.5,29.94,SW,225,0.0,0.0,90,0.00,,,0.00,WUHU216HW,2013-02-27 14:00:00,
2013-02-27 06:05:00,41.2,38.8,29.95,WSW,248,0.0,0.4,91,0.00,,,0.00,WUHU216HW,2013-02-27 14:05:00,
2013-02-27 06:10:00,41.4,38.7,29.95,WSW,248,0.0,0.4,90,0.00,,,0.00,WUHU216HW,2013-02-27 14:10:00,
2013-02-27 06:15:00,41.4,38.7,29.95,WSW,248,0.0,0.0,90,0.00,,,0.00,WUHU216HW,2013-02-27 14:15:00,
2013-02-27 06:20:00,41.4,38.7,29.95,WSW,248,0.0,0.0,90,0.00,,,0.00,WUHU216HW,2013-02-27 14:20:00,
2013-02-27 06:25:00,41.4,38.7,29.94,WSW,248,0.0,0.0,90,0.00,,,0.00,WUHU216HW,2013-02-27 14:25:00,
2013-02-27 06:30:00,41.4,38.7,29.95,WSW,248,0.0,0.0,90,0.00,,,0.00,WUHU216HW,2013-02-27 14:30:00,
2013-02-27 06:35:00,41.6,38.9,29.95,WSW,248,0.0,0.0,90,0.00,,,0.00,WUHU216HW,2013-02-27 14:35:00,
2013-02-27 06:40:00,41.6,38.9,29.95,WSW,248,0.0,0.0,90,0.00,,,0.00,WUHU216HW,2013-02-27 14:40:00,
2013-02-27 06:45:00,41.6,38.9,29.95,WSW,248,0.0,0.0,90,0.00,,,0.00,WUHU216HW,2013-02-27 14:45:00,
2013-02-27 06:50:00,41.6,38.9,29.96,WSW,248,0.0,0.0,90,0.00,,,0.00,WUHU216HW,2013-02-27 14:50:00,
2013-02-27 06:55:00,41.8,39.1,29.96,WSW,248,0.0,0.0,90,0.00,,,0.00,WUHU216HW,2013-02-27 14:55:00,
2013-02-27 07:00:00,41.8,39.1,29.96,WSW,248,0.0,0.0,90,0.00,,,0.00,WUHU216HW,2013-02-27 15:00:00,
2013-02-27 07:05:00,41.9,39.2,29.96,WSW,248,0.0,0.0,90,0.00,,,0.00,WUHU216HW,2013-02-27 15:05:00,
2013-02-27 07:10:00,41.9,39.2,29.95,WSW,248,0.0,0.0,90,0.00,,,0.00,WUHU216HW,2013-02-27 15:10:00,
2013-02-27 07:15:00,41.9,39.0,29.96,WSW,248,0.0,0.0,89,0.00,,,0.00,WUHU216HW,2013-02-27 15:15:00,
2013-02-27 07:20:00,42.1,39.2,29.96,WSW,248,0.0,0.0,89,0.00,,,0.00,WUHU216HW,2013-02-27 15:20:00,
2013-02-27 07:25:00,42.3,39.6,29.96,WSW,248,0.0,0.0,90,0.00,,,0.00,WUHU216HW,2013-02-27 15:25:00,
2013-02-27 07:30:00,42.3,39.6,29.96,WSW,248,0.0,0.0,90,0.00,,,0.00,WUHU216HW,2013-02-27 15:30:00,
2013-02-27 07:35:00,42.7,40.0,29.96,WSW,248,0.0,0.0,90,0.00,,,0.00,WUHU216HW,2013-02-27 15:35:00,
2013-02-27 07:40:00,42.7,39.7,29.96,WSW,248,0.0,0.0,89,0.00,,,0.00,WUHU216HW,2013-02-27 15:40:00,
2013-02-27 07:45:00,42.8,39.9,29.96,WSW,248,0.0,0.0,89,0.00,,,0.00,WUHU216HW,2013-02-27 15:45:00,
2013-02-27 07:50:00,42.8,39.9,29.96,WSW,248,0.0,0.0,89,0.00,,,0.00,WUHU216HW,2013-02-27 15:50:00,
2013-02-27 07:55:00,43.0,40.1,29.96,WSW,248,0.0,0.0,89,0.00,,,0.00,WUHU216HW,2013-02-27 15:55:00,
2013-02-27 08:00:00,43.2,40.2,29.96,WSW,248,0.0,0.0,89,0.00,,,0.00,WUHU216HW,2013-02-27 16:00:00,
2013-02-27 08:05:00,43.2,40.2,29.96,WSW,248,0.0,0.0,89,0.00,,,0.00,WUHU216HW,2013-02-27 16:05:00,
2013-02-27 08:10:00,43.4,40.4,29.96,WSW,248,0.0,0.0,89,0.00,,,0.00,WUHU216HW,2013-02-27 16:10:00,
2013-02-27 08:15:00,43.6,40.6,29.96,WSW,248,0.0,0.0,89,0.00,,,0.00,WUHU216HW,2013-02-27 16:15:00,
2013-02-27 08:20:00,43.7,40.8,29.97,WSW,248,0.0,0.0,89,0.00,,,0.00,WUHU216HW,2013-02-27 16:20:00,
2013-02-27 08:25:00,43.9,40.6,29.96,NNE,23,0.0,0.4,88,0.00,,,0.00,WUHU216HW,2013-02-27 16:25:00,
2013-02-27 08:30:00,43.9,40.6,29.97,NNE,23,0.0,0.4,88,0.00,,,0.00,WUHU216HW,2013-02-27 16:30:00,
2013-02-27 08:35:00,44.1,40.8,29.97,East,90,0.0,0.0,88,0.00,,,0.00,WUHU216HW,2013-02-27 16:35:00,
2013-02-27 08:40:00,44.1,40.8,29.97,East,90,0.0,0.2,88,0.00,,,0.00,WUHU216HW,2013-02-27 16:40:00,
2013-02-27 08:45:00,44.3,41.0,29.97,East,90,0.0,0.4,88,0.00,,,0.00,WUHU216HW,2013-02-27 16:45:00,
2013-02-27 08:50:00,44.3,41.0,29.97,East,90,0.0,0.4,88,0.00,,,0.00,WUHU216HW,2013-02-27 16:50:00,
2013-02-27 08:55:00,44.5,40.9,29.97,ESE,113,0.0,0.4,87,0.00,,,0.00,WUHU216HW,2013-02-27 16:55:00,
2013-02-27 09:00:00,44.5,40.9,29.97,ESE,113,0.0,0.4,87,0.00,,,0.00,WUHU216HW,2013-02-27 17:00:00,
2013-02-27 09:05:00,44.5,41.1,29.97,ESE,113,0.0,0.4,88,0.00,,,0.00,WUHU216HW,2013-02-27 17:05:00,
2013-02-27 09:10:00,44.5,41.1,29.97,ESE,113,0.0,0.4,88,0.00,,,0.00,WUHU216HW,2013-02-27 17:10:00,
2013-02-27 09:15:00,44.5,41.1,29.98,ESE,113,0.0,0.4,88,0.00,,,0.00,WUHU216HW,2013-02-27 17:15:00,
2013-02-27 09:20:00,44.5,41.1,29.98,ESE,113,0.0,0.0,88,0.00,,,0.00,WUHU216HW,2013-02-27 17:20:00,
2013-02-27 09:25:00,44.5,41.1,29.97,SE,135,0.0,1.1,88,0.00,,,0.00,WUHU216HW,2013-02-27 17:25:00,
2013-02-27 09:30:00,44.5,41.1,29.98,ESE,113,0.0,1.1,88,0.00,,,0.00,WUHU216HW,2013-02-27 17:30:00,
2013-02-27 09:35:00,44.5,41.1,29.98,ESE,113,0.0,0.2,88,0.00,,,0.00,WUHU216HW,2013-02-27 17:35:00,
2013-02-27 09:40:00,44.6,41.3,29.98,East,90,0.0,0.2,88,0.00,,,0.00,WUHU216HW,2013-02-27 17:40:00,
2013-02-27 09:45:00,44.6,41.3,29.98,SE,135,0.4,0.4,88,0.00,,,0.00,WUHU216HW,2013-02-27 17:45:00,
2013-02-27 09:50:00,44.6,41.3,29.97,SSE,158,0.0,0.4,88,0.00,,,0.00,WUHU216HW,2013-02-27 17:50:00,
2013-02-27 09:55:00,44.6,41.3,29.97,ESE,113,0.0,1.1,88,0.00,,,0.00,WUHU216HW,2013-02-27 17:55:00,
2013-02-27 10:01:00,44.8,41.5,29.97,ESE,113,2.2,2.2,88,0.00,,,0.00,WUHU216HW,2013-02-27 18:01:00,
2013-02-27 10:06:00,45.0,41.7,29.96,West,270,0.0,2.2,88,0.00,,,0.00,WUHU216HW,2013-02-27 18:06:00,
2013-02-27 10:10:00,45.4,42.0,29.96,WNW,293,0.0,1.1,88,0.00,,,0.00,WUHU216HW,2013-02-27 18:10:00,
2013-02-27 10:15:00,45.9,42.6,29.96,ESE,113,0.7,1.1,88,0.00,,,0.00,WUHU216HW,2013-02-27 18:15:00,
2013-02-27 10:20:00,46.3,42.7,29.96,SSE,158,0.4,1.1,87,0.00,,,0.00,WUHU216HW,2013-02-27 18:20:00,
2013-02-27 10:25:00,46.4,42.5,29.96,SSE,158,0.7,1.3,86,0.00,,,0.00,WUHU216HW,2013-02-27 18:25:00,
2013-02-27 10:31:00,46.3,42.3,29.96,ESE,113,0.0,2.2,86,0.00,,,0.00,WUHU216HW,2013-02-27 18:31:00,
2013-02-27 10:35:00,46.4,42.5,29.96,SE,135,0.2,2.2,86,0.00,,,0.00,WUHU216HW,2013-02-27 18:35:00,
2013-02-27 10:40:00,46.6,42.4,29.96,NE,45,0.9,1.1,85,0.00,,,0.00,WUHU216HW,2013-02-27 18:40:00,
2013-02-27 10:45:00,46.8,42.6,29.96,ENE,68,0.2,0.9,85,0.00,,,0.00,WUHU216HW,2013-02-27 18:45:00,
2013-02-27 10:50:00,47.0,42.8,29.96,ESE,113,0.4,0.9,85,0.00,,,0.00,WUHU216HW,2013-02-27 18:50:00,
2013-02-27 10:55:00,47.2,42.6,29.96,East,90,0.2,1.8,84,0.00,,,0.00,WUHU216HW,2013-02-27 18:55:00,
2013-02-27 11:00:00,47.2,42.6,29.96,East,90,0.2,1.8,84,0.00,,,0.00,WUHU216HW,2013-02-27 19:00:00,
2013-02-27 11:05:00,47.3,42.5,29.96,WNW,293,0.7,1.8,83,0.00,,,0.00,WUHU216HW,2013-02-27 19:05:00,
2013-02-27 11:10:00,47.5,42.3,29.96,West,270,1.3,1.8,82,0.00,,,0.00,WUHU216HW,2013-02-27 19:10:00,
2013-02-27 11:15:00,47.5,42.3,29.96,ENE,68,0.4,1.8,82,0.00,,,0.00,WUHU216HW,2013-02-27 19:15:00,
2013-02-27 11:20:00,47.3,41.8,29.97,ENE,68,0.4,1.8,81,0.00,,,0.00,WUHU216HW,2013-02-27 19:20:00,
2013-02-27 11:25:00,47.3,42.1,29.97,West,270,0.0,1.8,82,0.00,,,0.00,WUHU216HW,2013-02-27 19:25:00,
2013-02-27 11:30:00,47.5,42.3,29.97,North,0,0.0,1.1,82,0.00,,,0.00,WUHU216HW,2013-02-27 19:30:00,
2013-02-27 11:35:00,47.7,42.5,29.97,East,90,0.2,1.3,82,0.00,,,0.00,WUHU216HW,2013-02-27 19:35:00,
2013-02-27 11:40:00,47.9,42.3,29.97,ESE,113,1.8,1.8,81,0.00,,,0.00,WUHU216HW,2013-02-27 19:40:00,
2013-02-27 11:45:00,48.1,42.5,29.97,SE,135,0.4,1.8,81,0.00,,,0.00,WUHU216HW,2013-02-27 19:45:00,
2013-02-27 11:50:00,48.1,42.1,29.97,SE,135,0.2,1.8,80,0.00,,,0.00,WUHU216HW,2013-02-27 19:50:00,
2013-02-27 11:55:00,48.2,42.3,29.97,ESE,113,0.2,2.5,80,0.00,,,0.00,WUHU216HW,2013-02-27 19:55:00,
2013-02-27 12:00:00,48.2,42.3,29.97,West,270,0.0,2.5,80,0.00,,,0.00,WUHU216HW,2013-02-27 20:00:00,
2013-02-27 12:05:00,48.4,41.8,29.97,ESE,113,1.3,1.3,78,0.00,,,0.00,WUHU216HW,2013-02-27 20:05:00,
2013-02-27 12:10:00,48.6,41.9,29.97,SE,135,0.2,1.3,78,0.00,,,0.00,WUHU216HW,2013-02-27 20:10:00,
2013-02-27 12:15:00,48.6,41.9,29.97,WSW,248,0.4,1.3,78,0.00,,,0.00,WUHU216HW,2013-02-27 20:15:00,
2013-02-27 12:20:00,48.6,41.9,29.97,NW,315,0.4,3.1,78,0.00,,,0.00,WUHU216HW,2013-02-27 20:20:00,
2013-02-27 12:25:00,48.6,41.9,29.97,ESE,113,0.0,3.1,78,0.00,,,0.00,WUHU216HW,2013-02-27 20:25:00,
2013-02-27 12:30:00,48.6,41.9,29.97,South,180,0.4,1.6,78,0.00,,,0.00,WUHU216HW,2013-02-27 20:30:00,
2013-02-27 12:35:00,49.0,42.3,29.97,ESE,113,0.2,1.8,78,0.00,,,0.00,WUHU216HW,2013-02-27 20:35:00,
2013-02-27 12:40:00,49.3,42.7,29.97,ESE,113,0.0,1.8,78,0.00,,,0.00,WUHU216HW,2013-02-27 20:40:00,
2013-02-27 12:45:00,49.3,42.7,29.96,West,270,0.0,0.7,78,0.00,,,0.00,WUHU216HW,2013-02-27 20:45:00,
2013-02-27 12:50:00,49.5,42.6,29.96,ESE,113,0.4,1.6,77,0.00,,,0.00,WUHU216HW,2013-02-27 20:50:00,
2013-02-27 12:55:00,49.7,42.8,29.96,SE,135,0.0,1.6,77,0.00,,,0.00,WUHU216HW,2013-02-27 20:55:00,
2013-02-27 13:00:00,50.0,43.4,29.96,NW,315,0.2,1.1,78,0.00,,,0.00,WUHU216HW,2013-02-27 21:00:00,
2013-02-27 13:05:00,50.4,42.8,29.95,SE,135,0.9,0.9,75,0.00,,,0.00,WUHU216HW,2013-02-27 21:05:00,
2013-02-27 13:10:00,50.6,42.9,29.96,ESE,113,1.1,1.1,75,0.00,,,0.00,WUHU216HW,2013-02-27 21:10:00,
2013-02-27 13:15:00,50.8,43.1,29.96,SE,135,0.2,1.6,75,0.00,,,0.00,WUHU216HW,2013-02-27 21:15:00,
2013-02-27 13:20:00,50.8,42.4,29.95,East,90,0.7,1.6,73,0.00,,,0.00,WUHU216HW,2013-02-27 21:20:00,
2013-02-27 13:25:00,50.9,42.3,29.95,West,270,0.2,1.8,72,0.00,,,0.00,WUHU216HW,2013-02-27 21:25:00,
2013-02-27 13:30:00,50.9,42.3,29.95,SE,135,0.9,1.8,72,0.00,,,0.00,WUHU216HW,2013-02-27 21:30:00,
2013-02-27 13:35:00,50.9,42.3,29.95,NNW,338,0.0,2.2,72,0.00,,,0.00,WUHU216HW,2013-02-27 21:35:00,
2013-02-27 13:40:00,51.1,42.5,29.95,WSW,248,0.0,2.2,72,0.00,,,0.00,WUHU216HW,2013-02-27 21:40:00,
2013-02-27 13:45:00,51.3,42.7,29.95,East,90,0.4,2.0,72,0.00,,,0.00,WUHU216HW,2013-02-27 21:45:00,
2013-02-27 13:50:00,51.3,42.7,29.95,SE,135,0.2,2.0,72,0.00,,,0.00,WUHU216HW,2013-02-27 21:50:00,
2013-02-27 13:55:00,51.3,42.7,29.95,East,90,0.0,1.3,72,0.00,,,0.00,WUHU216HW,2013-02-27 21:55:00,
2013-02-27 14:00:00,51.5,42.9,29.95,SE,135,0.9,1.3,72,0.00,,,0.00,WUHU216HW,2013-02-27 22:00:00,
2013-02-27 14:05:00,51.3,42.7,29.95,ESE,113,0.0,1.8,72,0.00,,,0.00,WUHU216HW,2013-02-27 22:05:00,
2013-02-27 14:10:00,51.5,42.9,29.94,ESE,113,0.0,1.8,72,0.00,,,0.00,WUHU216HW,2013-02-27 22:10:00,
2013-02-27 14:15:00,51.7,43.0,29.94,ENE,68,1.6,1.6,72,0.00,,,0.00,WUHU216HW,2013-02-27 22:15:00,
2013-02-27 14:20:00,51.7,43.0,29.95,East,90,0.4,1.6,72,0.00,,,0.00,WUHU216HW,2013-02-27 22:20:00,
2013-02-27 14:25:00,51.7,43.0,29.94,ESE,113,0.9,1.6,72,0.00,,,0.00,WUHU216HW,2013-02-27 22:25:00,
2013-02-27 14:30:00,51.7,43.0,29.94,ESE,113,0.4,2.2,72,0.00,,,0.00,WUHU216HW,2013-02-27 22:30:00,
2013-02-27 14:35:00,52.0,43.3,29.94,ESE,113,0.2,2.2,72,0.00,,,0.00,WUHU216HW,2013-02-27 22:35:00,
2013-02-27 14:40:00,52.2,43.5,29.94,East,90,0.0,0.4,72,0.00,,,0.00,WUHU216HW,2013-02-27 22:40:00,
2013-02-27 14:45:00,52.2,43.1,29.94,NW,315,0.4,1.8,71,0.00,,,0.00,WUHU216HW,2013-02-27 22:45:00,
2013-02-27 14:50:00,52.0,43.3,29.94,NNW,338,0.0,2.0,72,0.00,,,0.00,WUHU216HW,2013-02-27 22:50:00,
2013-02-27 14:55:00,52.2,43.5,29.94,East,90,0.0,2.0,72,0.00,,,0.00,WUHU216HW,2013-02-27 22:55:00,
2013-02-27 15:00:00,52.2,43.5,29.94,WNW,293,0.4,2.5,72,0.00,,,0.00,WUHU216HW,2013-02-27 23:00:00,
2013-02-27 15:05:00,52.4,43.7,29.94,NW,315,0.2,2.5,72,0.00,,,0.00,WUHU216HW,2013-02-27 23:05:00,
2013-02-27 15:10:00,52.4,43.7,29.94,ESE,113,0.4,1.1,72,0.00,,,0.00,WUHU216HW,2013-02-27 23:10:00,
2013-02-27 15:15:00,52.2,43.5,29.94,SSE,158,2.7,2.7,72,0.00,,,0.00,WUHU216HW,2013-02-27 23:15:00,
2013-02-27 15:20:00,52.2,43.8,29.94,ENE,68,0.2,2.7,73,0.00,,,0.00,WUHU216HW,2013-02-27 23:20:00,
2013-02-27 15:25:00,52.2,43.8,29.93,West,270,1.1,1.6,73,0.00,,,0.00,WUHU216HW,2013-02-27 23:25:00,
2013-02-27 15:30:00,52.2,43.8,29.93,WNW,293,0.4,1.6,73,0.00,,,0.00,WUHU216HW,2013-02-27 23:30:00,
2013-02-27 15:35:00,52.4,44.4,29.93,West,270,0.4,1.6,74,0.00,,,0.00,WUHU216HW,2013-02-27 23:35:00,
2013-02-27 15:40:00,52.4,44.4,29.93,ESE,113,0.0,1.3,74,0.00,,,0.00,WUHU216HW,2013-02-27 23:40:00,
2013-02-27 15:45:00,52.6,44.6,29.93,SW,225,0.2,1.1,74,0.00,,,0.00,WUHU216HW,2013-02-27 23:45:00,
2013-02-27 15:50:00,52.6,44.6,29.93,East,90,0.9,1.6,74,0.00,,,0.00,WUHU216HW,2013-02-27 23:50:00,
2013-02-27 15:55:00,52.4,44.4,29.92,SE,135,0.0,1.6,74,0.00,,,0.00,WUHU216HW,2013-02-27 23:55:00,
2013-02-27 16:00:00,52.4,44.4,29.92,WNW,293,0.0,1.1,74,0.00,,,0.00,WUHU216HW,2013-02-28 00:00:00,
2013-02-27 16:05:00,52.4,44.4,29.92,WNW,293,0.2,1.3,74,0.00,,,0.00,WUHU216HW,2013-02-28 00:05:00,
2013-02-27 16:10:00,52.2,44.2,29.93,West,270,0.2,1.3,74,0.00,,,0.00,WUHU216HW,2013-02-28 00:10:00,
2013-02-27 16:15:00,52.2,44.2,29.93,ESE,113,0.0,0.9,74,0.00,,,0.00,WUHU216HW,2013-02-28 00:15:00,
2013-02-27 16:20:00,52.2,44.6,29.93,West,270,0.4,1.1,75,0.00,,,0.00,WUHU216HW,2013-02-28 00:20:00,
2013-02-27 16:25:00,52.2,44.6,29.93,West,270,0.0,1.1,75,0.00,,,0.00,WUHU216HW,2013-02-28 00:25:00,
2013-02-27 16:30:00,52.2,44.6,29.93,WNW,293,0.0,0.4,75,0.00,,,0.00,WUHU216HW,2013-02-28 00:30:00,
2013-02-27 16:35:00,52.2,44.6,29.93,WSW,248,0.0,0.7,75,0.00,,,0.00,WUHU216HW,2013-02-28 00:35:00,
2013-02-27 16:40:00,52.2,44.6,29.93,WSW,248,0.0,0.7,75,0.00,,,0.00,WUHU216HW,2013-02-28 00:40:00,
2013-02-27 16:45:00,52.2,44.9,29.92,WSW,248,0.0,0.4,76,0.00,,,0.00,WUHU216HW,2013-02-28 00:45:00,
2013-02-27 16:50:00,52.2,44.9,29.92,WSW,248,0.0,0.4,76,0.00,,,0.00,WUHU216HW,2013-02-28 00:50:00,
2013-02-27 16:55:00,52.2,44.9,29.92,WSW,248,0.0,0.0,76,0.00,,,0.00,WUHU216HW,2013-02-28 00:55:00,
2013-02-27 17:00:00,52.2,44.9,29.92,WSW,248,0.0,0.0,76,0.00,,,0.00,WUHU216HW,2013-02-28 01:00:00,
2013-02-27 17:05:00,52.0,45.1,29.92,WSW,248,0.0,0.0,77,0.00,,,0.00,WUHU216HW,2013-02-28 01:05:00,
2013-02-27 17:10:00,52.0,45.1,29.92,WSW,248,0.0,0.0,77,0.00,,,0.00,WUHU216HW,2013-02-28 01:10:00,
2013-02-27 17:15:00,52.0,45.1,29.91,WSW,248,0.0,0.0,77,0.00,,,0.00,WUHU216HW,2013-02-28 01:15:00,
2013-02-27 17:20:00,51.8,44.9,29.92,WSW,248,0.0,0.0,77,0.00,,,0.00,WUHU216HW,2013-02-28 01:20:00,
2013-02-27 17:25:00,51.8,44.9,29.92,WSW,248,0.0,0.0,77,0.00,,,0.00,WUHU216HW,2013-02-28 01:25:00,
2013-02-27 17:30:00,51.7,45.0,29.92,WSW,248,0.0,0.0,78,0.00,,,0.00,WUHU216HW,2013-02-28 01:30:00,
2013-02-27 17:35:00,51.7,45.0,29.91,WSW,248,0.0,0.0,78,0.00,,,0.00,WUHU216HW,2013-02-28 01:35:00,
2013-02-27 17:40:00,51.5,44.8,29.92,WSW,248,0.0,0.0,78,0.00,,,0.00,WUHU216HW,2013-02-28 01:40:00,
2013-02-27 17:45:00,51.5,45.2,29.93,WSW,248,0.0,0.0,79,0.00,,,0.00,WUHU216HW,2013-02-28 01:45:00,
2013-02-27 17:50:00,51.3,45.4,29.93,WSW,248,0.0,0.0,80,0.00,,,0.00,WUHU216HW,2013-02-28 01:50:00,
2013-02-27 17:55:00,51.1,45.2,29.92,WSW,248,0.0,0.0,80,0.00,,,0.00,WUHU216HW,2013-02-28 01:55:00,
2013-02-27 18:00:00,50.9,45.0,29.92,WSW,248,0.0,0.0,80,0.00,,,0.00,WUHU216HW,2013-02-28 02:00:00,
2013-02-27 18:05:00,50.8,45.5,29.92,WSW,248,0.0,0.0,82,0.00,,,0.00,WUHU216HW,2013-02-28 02:05:00,
2013-02-27 18:10:00,50.6,45.3,29.92,WSW,248,0.0,0.0,82,0.00,,,0.00,WUHU216HW,2013-02-28 02:10:00,
2013-02-27 18:15:00,50.4,45.1,29.92,WSW,248,0.0,0.0,82,0.00,,,0.00,WUHU216HW,2013-02-28 02:15:00,
2013-02-27 18:20:00,50.2,45.2,29.92,WSW,248,0.0,0.0,83,0.00,,,0.00,WUHU216HW,2013-02-28 02:20:00,
2013-02-27 18:25:00,50.0,45.0,29.92,WSW,248,0.0,0.0,83,0.00,,,0.00,WUHU216HW,2013-02-28 02:25:00,
2013-02-27 18:30:00,50.0,45.0,29.92,WSW,248,0.0,0.0,83,0.00,,,0.00,WUHU216HW,2013-02-28 02:30:00,
2013-02-27 18:35:00,49.9,45.2,29.92,WSW,248,0.0,0.0,84,0.00,,,0.00,WUHU216HW,2013-02-28 02:35:00,
2013-02-27 18:40:00,49.7,45.0,29.92,WSW,248,0.0,0.0,84,0.00,,,0.00,WUHU216HW,2013-02-28 02:40:00,
2013-02-27 18:45:00,49.7,45.6,29.92,WSW,248,0.0,0.0,86,0.00,,,0.00,WUHU216HW,2013-02-28 02:45:00,
2013-02-27 18:50:00,49.5,45.1,29.92,WSW,248,0.0,0.0,85,0.00,,,0.00,WUHU216HW,2013-02-28 02:50:00,
2013-02-27 18:55:00,49.3,44.9,29.92,WSW,248,0.0,0.0,85,0.00,,,0.00,WUHU216HW,2013-02-28 02:55:00,
2013-02-27 19:00:00,49.3,44.9,29.92,WSW,248,0.0,0.0,85,0.00,,,0.00,WUHU216HW,2013-02-28 03:00:00,
2013-02-27 19:05:00,49.3,44.9,29.92,WSW,248,0.0,0.0,85,0.00,,,0.00,WUHU216HW,2013-02-28 03:05:00,
2013-02-27 19:10:00,49.3,44.9,29.91,WSW,248,0.0,0.0,85,0.00,,,0.00,WUHU216HW,2013-02-28 03:10:00,
2013-02-27 19:15:00,49.1,45.1,29.91,WSW,248,0.0,0.0,86,0.00,,,0.00,WUHU216HW,2013-02-28 03:15:00,
2013-02-27 19:20:00,49.0,44.9,29.91,WSW,248,0.0,0.0,86,0.00,,,0.00,WUHU216HW,2013-02-28 03:20:00,
2013-02-27 19:25:00,49.0,44.9,29.91,WSW,248,0.0,0.0,86,0.00,,,0.00,WUHU216HW,2013-02-28 03:25:00,
2013-02-27 19:30:00,49.0,44.9,29.91,WSW,248,0.0,0.0,86,0.00,,,0.00,WUHU216HW,2013-02-28 03:30:00,
2013-02-27 19:35:00,49.0,45.3,29.92,WSW,248,0.0,0.0,87,0.00,,,0.00,WUHU216HW,2013-02-28 03:35:00,
2013-02-27 19:40:00,49.0,45.3,29.92,WSW,248,0.0,0.0,87,0.00,,,0.00,WUHU216HW,2013-02-28 03:40:00,
2013-02-27 19:45:00,48.8,45.1,29.91,WSW,248,0.0,0.0,87,0.00,,,0.00,WUHU216HW,2013-02-28 03:45:00,
2013-02-27 19:50:00,48.8,45.1,29.91,WSW,248,0.0,0.0,87,0.00,,,0.00,WUHU216HW,2013-02-28 03:50:00,
2013-02-27 19:55:00,48.6,45.2,29.91,WSW,248,0.0,0.0,88,0.00,,,0.00,WUHU216HW,2013-02-28 03:55:00,
2013-02-27 20:00:00,48.6,45.2,29.91,WSW,248,0.0,0.0,88,0.00,,,0.00,WUHU216HW,2013-02-28 04:00:00,
2013-02-27 20:05:00,48.6,45.2,29.91,WSW,248,0.0,0.0,88,0.00,,,0.00,WUHU216HW,2013-02-28 04:05:00,
2013-02-27 20:10:00,48.6,45.2,29.91,WSW,248,0.0,0.0,88,0.00,,,0.00,WUHU216HW,2013-02-28 04:10:00,
2013-02-27 20:15:00,48.4,45.1,29.91,WSW,248,0.0,0.0,88,0.00,,,0.00,WUHU216HW,2013-02-28 04:15:00,
2013-02-27 20:20:00,48.4,45.1,29.91,WSW,248,0.0,0.0,88,0.00,,,0.00,WUHU216HW,2013-02-28 04:20:00,
2013-02-27 20:25:00,48.4,45.1,29.91,WSW,248,0.0,0.0,88,0.00,,,0.00,WUHU216HW,2013-02-28 04:25:00,
2013-02-27 20:30:00,48.4,45.1,29.91,WSW,248,0.0,0.0,88,0.00,,,0.00,WUHU216HW,2013-02-28 04:30:00,
2013-02-27 20:35:00,48.4,45.1,29.91,WSW,248,0.0,0.0,88,0.00,,,0.00,WUHU216HW,2013-02-28 04:35:00,
2013-02-27 20:40:00,48.2,45.2,29.91,WSW,248,0.0,0.0,89,0.00,,,0.00,WUHU216HW,2013-02-28 04:40:00,
2013-02-27 20:45:00,48.2,45.2,29.91,WSW,248,0.0,0.0,89,0.00,,,0.00,WUHU216HW,2013-02-28 04:45:00,
2013-02-27 20:50:00,48.2,45.2,29.91,WSW,248,0.0,0.0,89,0.00,,,0.00,WUHU216HW,2013-02-28 04:50:00,
2013-02-27 20:55:00,48.1,45.0,29.91,WSW,248,0.0,0.0,89,0.00,,,0.00,WUHU216HW,2013-02-28 04:55:00,
2013-02-27 21:00:00,48.2,45.2,29.91,WSW,248,0.0,0.0,89,0.00,,,0.00,WUHU216HW,2013-02-28 05:00:00,
2013-02-27 21:05:00,48.2,45.2,29.91,WSW,248,0.0,0.0,89,0.00,,,0.00,WUHU216HW,2013-02-28 05:05:00,
2013-02-27 21:10:00,48.1,45.4,29.91,WSW,248,0.0,0.0,90,0.00,,,0.00,WUHU216HW,2013-02-28 05:10:00,
2013-02-27 21:15:00,48.1,45.4,29.91,WSW,248,0.0,0.0,90,0.00,,,0.00,WUHU216HW,2013-02-28 05:15:00,
2013-02-27 21:20:00,48.1,45.4,29.91,WSW,248,0.0,0.0,90,0.00,,,0.00,WUHU216HW,2013-02-28 05:20:00,
2013-02-27 21:25:00,48.1,45.4,29.91,WSW,248,0.0,0.0,90,0.00,,,0.00,WUHU216HW,2013-02-28 05:25:00,
2013-02-27 21:30:00,48.1,45.4,29.91,WSW,248,0.0,0.0,90,0.00,,,0.00,WUHU216HW,2013-02-28 05:30:00,
2013-02-27 21:35:00,47.9,45.5,29.91,WSW,248,0.0,0.0,91,0.00,,,0.00,WUHU216HW,2013-02-28 05:35:00,
2013-02-27 21:40:00,47.9,45.5,29.91,WSW,248,0.0,0.0,91,0.00,,,0.00,WUHU216HW,2013-02-28 05:40:00,
2013-02-27 21:45:00,47.9,45.5,29.91,WSW,248,0.0,0.0,91,0.00,,,0.00,WUHU216HW,2013-02-28 05:45:00,
2013-02-27 21:50:00,47.9,45.5,29.91,WSW,248,0.0,0.0,91,0.00,,,0.00,WUHU216HW,2013-02-28 05:50:00,
2013-02-27 21:55:00,47.9,45.5,29.91,WSW,248,0.0,0.0,91,0.00,,,0.00,WUHU216HW,2013-02-28 05:55:00,
2013-02-27 22:00:00,47.9,45.5,29.91,WSW,248,0.0,0.0,91,0.00,,,0.00,WUHU216HW,2013-02-28 06:00:00,
2013-02-27 22:05:00,47.9,45.5,29.91,WSW,248,0.0,0.0,91,0.00,,,0.00,WUHU216HW,2013-02-28 06:05:00,
2013-02-27 22:10:00,47.9,45.5,29.91,WSW,248,0.0,0.0,91,0.00,,,0.00,WUHU216HW,2013-02-28 06:10:00,
2013-02-27 22:15:00,47.9,45.5,29.91,ESE,113,0.0,0.2,91,0.00,,,0.00,WUHU216HW,2013-02-28 06:15:00,
2013-02-27 22:20:00,47.9,45.5,29.90,ESE,113,0.0,0.2,91,0.00,,,0.00,WUHU216HW,2013-02-28 06:20:00,
2013-02-27 22:25:00,47.9,45.5,29.91,SE,135,0.0,0.0,91,0.00,,,0.00,WUHU216HW,2013-02-28 06:25:00,
2013-02-27 22:30:00,47.9,45.5,29.91,SE,135,0.0,0.0,91,0.00,,,0.00,WUHU216HW,2013-02-28 06:30:00,
2013-02-27 22:35:00,47.9,45.5,29.91,SE,135,0.0,0.0,91,0.00,,,0.00,WUHU216HW,2013-02-28 06:35:00,
2013-02-27 22:40:00,47.9,45.5,29.90,SE,135,0.0,0.0,91,0.00,,,0.00,WUHU216HW,2013-02-28 06:40:00,
2013-02-27 22:45:00,47.9,45.5,29.90,SE,135,0.0,0.0,91,0.00,,,0.00,WUHU216HW,2013-02-28 06:45:00,
2013-02-27 22:50:00,47.9,45.5,29.90,SE,135,0.0,0.0,91,0.00,,,0.00,WUHU216HW,2013-02-28 06:50:00,
2013-02-27 22:55:00,47.9,45.5,29.90,SE,135,0.0,0.0,91,0.00,,,0.00,WUHU216HW,2013-02-28 06:55:00,
2013-02-27 23:00:00,47.9,45.5,29.90,SE,135,0.0,0.0,91,0.00,,,0.00,WUHU216HW,2013-02-28 07:00:00,
2013-02-27 23:05:00,47.9,45.5,29.90,SE,135,0.0,0.0,91,0.00,,,0.00,WUHU216HW,2013-02-28 07:05:00,
2013-02-27 23:10:00,47.9,45.7,29.90,SW,225,0.0,0.0,92,0.00,,,0.00,WUHU216HW,2013-02-28 07:10:00,
2013-02-27 23:15:00,47.9,45.5,29.90,SW,225,0.0,0.0,91,0.00,,,0.00,WUHU216HW,2013-02-28 07:15:00,
2013-02-27 23:20:00,47.9,45.5,29.90,SW,225,0.0,0.0,91,0.00,,,0.00,WUHU216HW,2013-02-28 07:20:00,
2013-02-27 23:25:00,47.9,45.5,29.90,SW,225,0.0,0.0,91,0.00,,,0.00,WUHU216HW,2013-02-28 07:25:00,
2013-02-27 23:30:00,47.9,45.5,29.89,SW,225,0.0,0.0,91,0.00,,,0.00,WUHU216HW,2013-02-28 07:30:00,
2013-02-27 23:35:00,47.9,45.5,29.89,SW,225,0.0,0.0,91,0.00,,,0.00,WUHU216HW,2013-02-28 07:35:00,
2013-02-27 23:40:00,47.9,45.5,29.89,SW,225,0.0,0.0,91,0.00,,,0.00,WUHU216HW,2013-02-28 07:40:00,
2013-02-27 23:45:00,47.9,45.5,29.89,SW,225,0.0,0.0,91,0.00,,,0.00,WUHU216HW,2013-02-28 07:45:00,
2013-02-27 23:50:00,47.9,45.5,29.89,SW,225,0.0,0.0,91,0.00,,,0.00,WUHU216HW,2013-02-28 07:50:00,
2013-02-27 23:55:00,47.9,45.5,29.89,SW,225,0.0,0.0,91,0.00,,,0.00,WUHU216HW,2013-02-28 07:55:00,